Location: Newark
(45.2500°N, 7.5833°E)
Time: 06:33:37
(UTC+00:00)

A-11 Canister half - Pass Details

Date: 28 January 2020
Orbit: 1524 x 1684 km, 47.3° (Epoch: 27 February)

Event Time Altitude Azimuth Distance (km) Brightness Sun altitude
Rises 23:49:14 0° 292° (WNW) 4,777 - -63.1°
Reaches altitude 10° 23:52:50 10° 282° (WNW) 3,814 - -63.1°
Maximum altitude 00:00:36 28° 228° (SW) 2,697 - -62.9°
Drops below altitude 10° 00:08:33 10° 175° (S) 3,899 - -62.6°
Sets 00:12:19 0° 164° (SSE) 4,900 - -62.4°
